TimeCST,TemperatureF,Dew PointF,Humidity,Sea Level PressureIn,VisibilityMPH,Wind Direction,Wind SpeedMPH,Gust SpeedMPH,PrecipitationIn,Events,Conditions,WindDirDegrees,DateUTC
12:52 AM,28.0,26.1,92,30.03,5.0,NNE,6.9,-,N/A,,Overcast,30,2012-12-08 06:52:00
1:52 AM,28.0,26.1,92,30.03,5.0,NE,4.6,-,N/A,,Overcast,40,2012-12-08 07:52:00
2:52 AM,28.0,26.1,92,30.04,4.0,NNE,3.5,-,N/A,,Overcast,20,2012-12-08 08:52:00
3:52 AM,27.0,25.0,92,30.04,4.0,North,4.6,-,N/A,,Overcast,10,2012-12-08 09:52:00
4:04 AM,26.6,24.8,93,29.99,4.0,NNE,5.8,-,N/A,,Overcast,30,2012-12-08 10:04:00
4:52 AM,27.0,25.0,92,30.05,5.0,NNE,6.9,-,N/A,,Overcast,30,2012-12-08 10:52:00
5:24 AM,26.6,24.8,93,29.99,1.8,NE,9.2,-,N/A,,Overcast,40,2012-12-08 11:24:00
5:47 AM,26.6,24.8,93,29.99,1.0,NE,9.2,-,N/A,,Overcast,40,2012-12-08 11:47:00
5:52 AM,26.1,25.0,96,30.04,0.8,NE,6.9,-,N/A,,Mist,40,2012-12-08 11:52:00
6:52 AM,26.1,24.1,92,30.05,0.5,ENE,6.9,-,N/A,Fog,Light Freezing Fog,60,2012-12-08 12:52:00
7:52 AM,24.1,23.0,96,30.04,0.2,ESE,6.9,-,N/A,Fog,Light Freezing Fog,110,2012-12-08 13:52:00
8:52 AM,25.0,24.1,96,30.06,0.2,SE,5.8,-,N/A,Fog,Light Freezing Fog,130,2012-12-08 14:52:00
9:52 AM,26.1,25.0,96,30.08,0.2,Variable,3.5,-,N/A,Fog,Light Freezing Fog,0,2012-12-08 15:52:00
10:28 AM,26.6,26.6,100,30.02,1.2,Variable,5.8,-,N/A,,Overcast,0,2012-12-08 16:28:00
10:39 AM,26.6,26.6,100,30.01,0.8,SE,3.5,-,N/A,,Overcast,130,2012-12-08 16:39:00
10:44 AM,26.6,26.6,100,30.01,1.2,SE,3.5,-,N/A,,Overcast,140,2012-12-08 16:44:00
10:50 AM,26.6,26.6,100,30.01,3.0,ESE,4.6,-,N/A,,Overcast,120,2012-12-08 16:50:00
10:52 AM,27.0,26.1,96,30.06,4.0,ESE,5.8,-,N/A,,Overcast,120,2012-12-08 16:52:00
11:24 AM,28.4,26.6,93,29.99,6.0,ESE,6.9,-,N/A,,Overcast,110,2012-12-08 17:24:00
11:52 AM,27.0,25.0,92,30.04,7.0,SE,8.1,-,N/A,,Overcast,130,2012-12-08 17:52:00
12:39 PM,28.4,26.6,93,29.97,7.0,ESE,10.4,-,N/A,,Overcast,120,2012-12-08 18:39:00
12:52 PM,28.0,26.1,92,30.01,7.0,ESE,9.2,-,N/A,,Overcast,120,2012-12-08 18:52:00
1:52 PM,28.9,26.1,89,29.99,8.0,ESE,10.4,-,N/A,,Scattered Clouds,120,2012-12-08 19:52:00
2:17 PM,30.2,26.6,86,29.93,7.0,SE,11.5,-,N/A,,Mostly Cloudy,130,2012-12-08 20:17:00
2:24 PM,30.2,26.6,86,29.93,7.0,SE,11.5,-,N/A,,Scattered Clouds,130,2012-12-08 20:24:00
2:52 PM,28.9,26.1,89,29.97,7.0,SE,12.7,-,N/A,,Partly Cloudy,130,2012-12-08 20:52:00
3:52 PM,30.0,26.1,85,29.97,7.0,SE,12.7,-,N/A,,Clear,130,2012-12-08 21:52:00
4:52 PM,28.9,26.1,89,29.97,8.0,ESE,8.1,-,N/A,,Partly Cloudy,120,2012-12-08 22:52:00
6:52 PM,30.9,26.1,82,29.97,9.0,SE,9.2,-,N/A,,Overcast,130,2012-12-09 00:52:00
7:52 PM,32.0,27.0,82,29.97,10.0,SE,11.5,-,N/A,,Overcast,140,2012-12-09 01:52:00
8:52 PM,32.0,27.0,82,29.93,7.0,SE,17.3,-,0.00,,Overcast,140,2012-12-09 02:52:00
9:27 PM,32.0,28.4,87,29.88,2.5,SSE,19.6,-,0.00,Snow,Light Snow,150,2012-12-09 03:27:00
9:50 PM,30.2,28.4,93,29.88,1.2,SE,19.6,-,0.00,Snow,Light Snow,140,2012-12-09 03:50:00
9:52 PM,30.9,28.9,92,29.93,1.2,SE,18.4,-,0.00,Snow,Light Snow,140,2012-12-09 03:52:00
10:15 PM,32.0,30.2,93,29.89,2.0,SSE,15.0,-,0.00,Snow,Light Snow,150,2012-12-09 04:15:00
10:24 PM,32.0,30.2,93,29.90,2.0,SSE,16.1,-,0.00,Snow,Light Snow,160,2012-12-09 04:24:00
10:31 PM,32.0,30.2,93,29.90,2.5,SSE,16.1,-,0.00,Snow,Light Snow,160,2012-12-09 04:31:00
10:52 PM,32.0,30.0,92,29.96,1.8,South,15.0,-,0.00,Snow,Light Snow,180,2012-12-09 04:52:00
11:35 PM,32.0,30.2,93,29.90,2.5,SSE,15.0,-,0.00,Snow,Light Snow,160,2012-12-09 05:35:00
11:44 PM,32.0,30.2,93,29.90,3.0,SSE,13.8,-,0.00,,Overcast,160,2012-12-09 05:44:00
11:52 PM,32.0,30.9,96,29.94,3.0,SSE,15.0,-,0.00,Snow,Light Snow,150,2012-12-09 05:52:00